When you browse on this site, cookies collect data to enhance your experience and personalize the content and advertising you see.
Visit our Privacy Policy to learn more. By continuing to use the site, you agree to this use of cookies and data.
  • In Hungary
  • List of Countries
  • For 7 days
  • Water Temperature
  • Satellite Maps
  • Weather Map
  • News
  • Weather Widgets
  • user-avatar
    Login

    Hourly Weather Wieszczeta

    Today, 18 November, Sunday

    Time Temperature Precipitation Wind Pressure Humidity
    00:00 -2°C° 0 mm 2 mps 746 mmHg 60%
    01:00 -2°C° 0 mm 2 mps 746 mmHg 61%
    02:00 -2°C° 0 mm 2 mps 746 mmHg 62%
    03:00 -3°C° 0 mm 2 mps 745 mmHg 63%
    04:00 -3°C° 0 mm 2 mps 745 mmHg 64%
    05:00 -1°C° 0 mm 1 mps 745 mmHg 65%
    06:00 -1°C° 0 mm 1 mps 744 mmHg 66%
    07:00 -1°C° 0 mm 1 mps 743 mmHg 67%
    08:00 0°C° 0 mm 1 mps 743 mmHg 63%
    09:00 -1°C° 0 mm 2 mps 743 mmHg 59%
    10:00 +1°C° 0 mm 2 mps 743 mmHg 55%
    11:00 +2°C° 0 mm 2 mps 742 mmHg 54%
    12:00 +3°C° 0 mm 2 mps 742 mmHg 53%
    13:00 +4°C° 0 mm 2 mps 741 mmHg 51%
    14:00 +3°C° 0.1 mm 2 mps 741 mmHg 53%
    15:00 +2°C° 0.1 mm 2 mps 740 mmHg 55%
    16:00 +1°C° 0.1 mm 2 mps 740 mmHg 57%
    17:00 +1°C° 0.1 mm 2 mps 739 mmHg 59%
    18:00 -1°C° 0.1 mm 2 mps 739 mmHg 60%
    19:00 -1°C° 0.1 mm 2 mps 739 mmHg 62%
    20:00 -1°C° 0 mm 2 mps 739 mmHg 65%
    21:00 -2°C° 0 mm 2 mps 738 mmHg 68%
    22:00 -2°C° 0 mm 2 mps 738 mmHg 71%
    23:00 -2°C° 0 mm 2 mps 738 mmHg 72%

    Tomorrow, 19 November, Monday

    Time Temperature Precipitation Wind Pressure Humidity
    00:00 -2°C° 0 mm 2 mps 738 mmHg 74%
    01:00 -2°C° 0 mm 2 mps 738 mmHg 76%
    02:00 -2°C° 0 mm 2 mps 737 mmHg 77%
    03:00 -2°C° 0 mm 2 mps 737 mmHg 78%
    04:00 -2°C° 0 mm 2 mps 737 mmHg 79%
    05:00 -3°C° 0 mm 2 mps 737 mmHg 81%
    06:00 -3°C° 0 mm 2 mps 737 mmHg 82%
    07:00 -3°C° 0 mm 2 mps 736 mmHg 84%
    08:00 -2°C° 0 mm 3 mps 737 mmHg 78%
    09:00 -1°C° 0 mm 3 mps 737 mmHg 73%
    10:00 -1°C° 0 mm 4 mps 737 mmHg 67%
    11:00 -1°C° 0 mm 4 mps 737 mmHg 64%
    12:00 0°C° 0 mm 4 mps 737 mmHg 61%
    13:00 0°C° 0 mm 4 mps 736 mmHg 59%
    14:00 0°C° 0 mm 4 mps 736 mmHg 61%
    15:00 0°C° 0 mm 3 mps 736 mmHg 64%
    16:00 -1°C° 0 mm 3 mps 736 mmHg 67%
    17:00 -1°C° 0 mm 3 mps 737 mmHg 68%
    18:00 -1°C° 0 mm 3 mps 737 mmHg 68%
    19:00 -2°C° 0 mm 3 mps 737 mmHg 69%
    20:00 -2°C° 0 mm 3 mps 737 mmHg 69%
    21:00 -2°C° 0 mm 3 mps 737 mmHg 70%
    22:00 -2°C° 0 mm 3 mps 738 mmHg 70%
    23:00 -4°C° 0 mm 3 mps 738 mmHg 71%

    Day after tomorrow, 20 November, Tuesday

    Time Temperature Precipitation Wind Pressure Humidity
    00:00 -4°C° 0 mm 3 mps 738 mmHg 72%
    01:00 -4°C° 0 mm 3 mps 737 mmHg 73%
    02:00 -4°C° 0 mm 3 mps 737 mmHg 73%
    03:00 -4°C° 0 mm 3 mps 737 mmHg 74%
    04:00 -4°C° 0 mm 3 mps 736 mmHg 74%
    05:00 -4°C° 0 mm 3 mps 736 mmHg 75%
    06:00 -4°C° 0 mm 3 mps 736 mmHg 77%
    07:00 -4°C° 0 mm 3 mps 736 mmHg 79%
    08:00 -2°C° 0 mm 3 mps 736 mmHg 75%
    09:00 -1°C° 0 mm 3 mps 736 mmHg 72%
    10:00 0°C° 0 mm 3 mps 736 mmHg 68%
    11:00 +1°C° 0 mm 3 mps 735 mmHg 67%
    12:00 0°C° 0 mm 4 mps 735 mmHg 67%
    13:00 +1°C° 0 mm 4 mps 734 mmHg 66%
    14:00 0°C° 0.3 mm 4 mps 734 mmHg 70%
    15:00 0°C° 0.3 mm 4 mps 733 mmHg 73%
    16:00 +1°C° 0.3 mm 3 mps 733 mmHg 77%
    17:00 +1°C° 0.4 mm 3 mps 733 mmHg 79%
    18:00 +1°C° 0.4 mm 3 mps 733 mmHg 81%
    19:00 +1°C° 0.4 mm 3 mps 732 mmHg 84%
    20:00 0°C° 0.4 mm 3 mps 732 mmHg 86%
    21:00 0°C° 0.4 mm 3 mps 732 mmHg 88%
    22:00 0°C° 0.4 mm 3 mps 732 mmHg 91%
    23:00 0°C° 0.1 mm 3 mps 732 mmHg 91%

    21 November, Wednesday

    Time Temperature Precipitation Wind Pressure Humidity
    00:00 0°C° 0.1 mm 3 mps 732 mmHg 91%
    01:00 0°C° 0.1 mm 3 mps 732 mmHg 91%
    02:00 +1°C° 0.1 mm 2 mps 732 mmHg 91%
    03:00 +1°C° 0.1 mm 2 mps 732 mmHg 91%
    04:00 +1°C° 0.1 mm 2 mps 732 mmHg 91%
    05:00 +1°C° 0.2 mm 2 mps 733 mmHg 91%
    06:00 +1°C° 0.2 mm 2 mps 733 mmHg 91%
    07:00 0°C° 0.2 mm 3 mps 733 mmHg 91%
    08:00 +1°C° 0.3 mm 3 mps 733 mmHg 91%
    09:00 +1°C° 0.3 mm 3 mps 734 mmHg 90%
    10:00 +1°C° 0.3 mm 3 mps 734 mmHg 89%
    11:00 +1°C° 0.1 mm 3 mps 734 mmHg 89%
    12:00 +1°C° 0.1 mm 3 mps 734 mmHg 89%
    13:00 +2°C° 0.1 mm 3 mps 735 mmHg 89%
    14:00 +1°C° 0 mm 3 mps 735 mmHg 89%
    15:00 +1°C° 0 mm 3 mps 735 mmHg 90%
    16:00 +1°C° 0 mm 3 mps 735 mmHg 90%
    17:00 +1°C° 0 mm 3 mps 735 mmHg 90%
    18:00 +1°C° 0 mm 3 mps 735 mmHg 90%
    19:00 +1°C° 0 mm 3 mps 736 mmHg 90%
    20:00 +1°C° 0 mm 3 mps 736 mmHg 90%
    21:00 +1°C° 0 mm 3 mps 736 mmHg 91%
    22:00 +1°C° 0 mm 3 mps 736 mmHg 91%
    23:00 +1°C° 0 mm 3 mps 736 mmHg 91%

    22 November, Thursday

    Time Temperature Precipitation Wind Pressure Humidity
    00:00 +1°C° 0 mm 3 mps 736 mmHg 91%
    01:00 +1°C° 0 mm 3 mps 736 mmHg 91%
    02:00 0°C° 0 mm 3 mps 737 mmHg 91%
    03:00 0°C° 0 mm 3 mps 737 mmHg 91%
    04:00 0°C° 0 mm 3 mps 737 mmHg 91%
    05:00 0°C° 0 mm 3 mps 737 mmHg 91%
    06:00 0°C° 0 mm 3 mps 737 mmHg 91%
    07:00 0°C° 0 mm 3 mps 737 mmHg 90%
    08:00 +1°C° 0 mm 3 mps 737 mmHg 89%
    09:00 +1°C° 0 mm 3 mps 738 mmHg 88%
    10:00 +2°C° 0 mm 3 mps 738 mmHg 86%
    11:00 +2°C° 0 mm 3 mps 738 mmHg 85%
    12:00 +3°C° 0 mm 3 mps 738 mmHg 84%
    13:00 +3°C° 0 mm 3 mps 738 mmHg 83%
    14:00 +3°C° 0 mm 3 mps 738 mmHg 85%
    15:00 +3°C° 0 mm 2 mps 738 mmHg 88%
    16:00 +2°C° 0 mm 2 mps 739 mmHg 90%
    17:00 +2°C° 0 mm 2 mps 739 mmHg 90%
    18:00 +2°C° 0 mm 2 mps 739 mmHg 91%
    19:00 +2°C° 0 mm 2 mps 739 mmHg 92%
    20:00 +2°C° 0 mm 2 mps 739 mmHg 92%
    21:00 +2°C° 0 mm 2 mps 740 mmHg 92%
    22:00 +3°C° 0 mm 1 mps 740 mmHg 92%
    23:00 +3°C° 0 mm 1 mps 740 mmHg 92%

    23 November, Friday

    Time Temperature Precipitation Wind Pressure Humidity
    00:00 +3°C° 0 mm 1 mps 740 mmHg 92%
    01:00 +3°C° 0 mm 1 mps 740 mmHg 92%
    02:00 +3°C° 0 mm 1 mps 740 mmHg 92%
    03:00 +3°C° 0 mm 1 mps 740 mmHg 93%
    04:00 +3°C° 0 mm 1 mps 740 mmHg 93%
    05:00 +4°C° 0 mm 1 mps 740 mmHg 93%
    06:00 +4°C° 0 mm 1 mps 740 mmHg 93%
    07:00 +4°C° 0 mm 1 mps 740 mmHg 92%
    08:00 +5°C° 0 mm 1 mps 740 mmHg 90%
    09:00 +6°C° 0 mm 1 mps 740 mmHg 88%
    10:00 +6°C° 0 mm 1 mps 740 mmHg 86%
    11:00 +7°C° 0 mm 1 mps 740 mmHg 83%
    12:00 +8°C° 0 mm 1 mps 740 mmHg 81%
    13:00 +9°C° 0 mm 1 mps 740 mmHg 78%
    14:00 +8°C° 0 mm 1 mps 739 mmHg 82%
    15:00 +7°C° 0 mm 1 mps 739 mmHg 85%
    16:00 +7°C° 0 mm 1 mps 739 mmHg 89%
    17:00 +6°C° 0 mm 1 mps 739 mmHg 89%
    18:00 +6°C° 0 mm 1 mps 739 mmHg 89%
    19:00 +6°C° 0 mm 1 mps 738 mmHg 90%
    20:00 +6°C° 0 mm 1 mps 738 mmHg 89%
    21:00 +6°C° 0 mm 1 mps 738 mmHg 89%
    22:00 +6°C° 0 mm 1 mps 738 mmHg 89%
    23:00 +6°C° 0 mm 1 mps 737 mmHg 89%
    Show more